Location: Ciserano
(45.5833°N, 9.6000°E)
Time: 22:09:48
(UTC+00:00)

FALCON 9 DEB - Pass Details

Date: 16 June 2021
Orbit: 364 x 377 km, 53.0° (Epoch: 26 July)

Event Time Altitude Azimuth Distance (km) Brightness Sun altitude
Exits shadow 00:16:06 - 285° (WNW) 1,517 5.9 -20.0°
Reaches altitude 10° 00:16:23 10° 287° (WNW) 1,414 5.8 -20.0°
Maximum altitude 00:19:06 25° 346° (NNW) 820 5.2 -19.9°
Drops below altitude 10° 00:21:48 10° 45° (NE) 1,415 6.6 -19.8°
Sets 00:24:05 0° 59° (ENE) 2,268 7.5 -19.6°
